contact:dominique.lefevre@mio.osupytheas.fr, maurice.libes@osupytheas.fr, didier.mallarino@osupytheas.fr
Project:EMSO http://www.emso-fr.org/EMSO-France
Depth: 2436.0 m
Title:EMSO Ligure Ouest : Data MII capteur AQUADOPP
Date,Latitude,Longitude,X_East,Y_North,Z_Up,Amplitude_X,Amplitude_Y,Amplitude_Z,Batterie,SoundSpeed,Heading,Pitch,Roll,Pressure,TIS,Speed,Direction
, degrees North, degrees East, m.s-1, m.s-1,m.s-1, 1, 1, 1, Volt, m.s-1, degree, degree, degree, dbar, degree_C, m.s-1, degree
2021-04-21T00:04:03,42.805,6.029,-0.023,-0.002,0.008,103.0,104.0,100.0,13.3,1505.2,324.7,-0.7,1.8,2470.564,13.29,0.023,265.0
2021-04-21T00:07:03,42.805,6.029,-0.031,-0.008,0.015,104.0,105.0,101.0,13.3,1505.2,327.8,-0.8,1.8,2470.546,13.29,0.032,255.5
2021-04-21T00:10:03,42.805,6.029,-0.009,-0.04,-0.04,103.0,104.0,101.0,13.4,1505.2,328.9,-0.8,1.8,2470.571,13.29,0.041,192.7
2021-04-21T00:13:03,42.805,6.029,-0.025,0.006,0.007,103.0,104.0,102.0,13.4,1505.2,329.0,-0.7,1.8,2470.517,13.29,0.025,283.5
2021-04-21T00:16:03,42.805,6.029,-0.018,0.001,0.014,103.0,101.0,101.0,13.4,1505.2,326.0,-0.8,1.8,2470.55,13.29,0.018,273.2
2021-04-21T00:19:03,42.805,6.029,0.004,-0.008,0.021,104.0,103.0,101.0,13.4,1505.2,326.4,-0.7,1.8,2470.517,13.29,0.008,153.4
2021-04-21T00:22:03,42.805,6.029,-0.002,-0.03,-0.034,102.0,103.0,101.0,13.4,1505.2,326.5,-0.8,1.8,2470.521,13.29,0.03,183.8
2021-04-21T00:25:03,42.805,6.029,-0.016,0.0,0.023,103.0,103.0,103.0,13.4,1505.2,325.8,-0.8,1.8,2470.555,13.29,0.016,270.0
2021-04-21T00:28:03,42.805,6.029,0.003,-0.002,-0.018,103.0,104.0,102.0,13.3,1505.2,325.2,-0.7,1.8,2470.534,13.29,0.003,123.7
2021-04-21T00:31:03,42.805,6.029,0.009,0.0,0.011,102.0,103.0,100.0,13.4,1505.2,325.9,-0.7,1.8,2470.505,13.29,0.009,90.0
2021-04-21T00:34:03,42.805,6.029,-0.009,-0.006,-0.016,103.0,105.0,101.0,13.3,1505.2,325.4,-0.7,1.8,2470.524,13.29,0.01,236.3
2021-04-21T00:37:03,42.805,6.029,-0.007,-0.014,0.0,102.0,103.0,102.0,13.4,1505.2,325.6,-0.7,1.8,2470.514,13.29,0.015,206.6
2021-04-21T00:40:03,42.805,6.029,-0.032,-0.021,-0.029,104.0,103.0,103.0,13.3,1505.2,327.0,-0.7,1.8,2470.527,13.29,0.038,236.7
2021-04-21T00:43:03,42.805,6.029,0.006,-0.01,0.0,105.0,102.0,101.0,13.3,1505.2,323.9,-0.8,1.8,2470.533,13.29,0.011,149.0
2021-04-21T00:46:03,42.805,6.029,-0.018,0.0,0.001,104.0,102.0,101.0,13.4,1505.2,328.6,-0.8,1.8,2470.528,13.29,0.018,270.0
2021-04-21T00:49:03,42.805,6.029,-0.014,0.0,-0.021,103.0,104.0,100.0,13.3,1505.2,327.5,-0.7,1.8,2470.535,13.29,0.014,270.0
2021-04-21T00:52:03,42.805,6.029,-0.013,-0.006,-0.047,102.0,102.0,100.0,13.3,1505.2,327.5,-0.7,1.8,2470.568,13.29,0.014,245.2
2021-04-21T00:55:03,42.805,6.029,-0.017,-0.007,0.005,103.0,102.0,102.0,13.4,1505.2,324.9,-0.8,1.8,2470.529,13.29,0.018,247.6
2021-04-21T00:58:03,42.805,6.029,-0.031,-0.023,-0.004,104.0,104.0,102.0,13.4,1505.2,327.6,-0.7,1.8,2470.532,13.29,0.038,233.4
2021-04-21T01:04:03,42.805,6.029,-0.009,-0.014,-0.005,106.0,103.0,101.0,13.3,1505.2,328.1,-0.8,1.8,2470.576,13.29,0.016,212.7
2021-04-21T01:07:03,42.805,6.029,0.009,-0.001,-0.007,103.0,102.0,102.0,13.4,1505.2,325.4,-0.8,1.8,2470.534,13.29,0.009,96.3
2021-04-21T01:10:03,42.805,6.029,0.0,-0.009,0.0,103.0,105.0,103.0,13.3,1505.2,325.5,-0.8,1.8,2470.517,13.29,0.009,180.0
2021-04-21T01:13:03,42.805,6.029,0.0,-0.016,-0.016,104.0,109.0,101.0,13.4,1505.2,323.7,-0.7,1.8,2470.519,13.29,0.016,180.0
2021-04-21T01:16:03,42.805,6.029,-0.02,0.0,-0.025,103.0,102.0,102.0,13.3,1505.2,328.4,-0.7,1.8,2470.533,13.29,0.02,270.0
2021-04-21T01:19:03,42.805,6.029,-0.016,-0.012,0.007,104.0,101.0,102.0,13.4,1505.2,328.8,-0.8,1.8,2470.556,13.29,0.02,233.1
2021-04-21T01:22:03,42.805,6.029,0.0,-0.016,0.031,103.0,102.0,102.0,13.4,1505.2,326.1,-0.8,1.8,2470.518,13.29,0.016,180.0
2021-04-21T01:25:03,42.805,6.029,-0.018,-0.003,0.019,103.0,105.0,102.0,13.4,1505.2,327.3,-0.7,1.8,2470.542,13.29,0.018,260.5
2021-04-21T01:28:03,42.805,6.029,-0.005,-0.005,0.008,103.0,103.0,102.0,13.3,1505.2,324.4,-0.8,1.8,2470.542,13.29,0.007,225.0
2021-04-21T01:31:03,42.805,6.029,-0.011,-0.013,0.009,104.0,104.0,102.0,13.3,1505.2,328.5,-0.7,1.8,2470.499,13.29,0.017,220.2
2021-04-21T01:34:03,42.805,6.029,-0.023,0.0,-0.003,105.0,104.0,102.0,13.3,1505.2,327.2,-0.8,1.8,2470.475,13.29,0.023,270.0
2021-04-21T01:37:03,42.805,6.029,0.008,-0.013,0.003,103.0,103.0,103.0,13.3,1505.2,325.2,-0.8,1.8,2470.591,13.29,0.015,148.4
2021-04-21T01:40:03,42.805,6.029,-0.015,0.0,0.016,104.0,103.0,101.0,13.4,1505.2,325.5,-0.8,1.8,2470.564,13.29,0.015,270.0
2021-04-21T01:43:03,42.805,6.029,-0.012,-0.006,-0.01,104.0,101.0,102.0,13.4,1505.2,323.8,-0.7,1.8,2470.552,13.29,0.013,243.4
2021-04-21T01:46:03,42.805,6.029,0.0,0.0,0.009,104.0,104.0,101.0,13.4,1505.2,328.6,-0.8,1.8,2470.529,13.29,0.0,0.0
2021-04-21T01:49:03,42.805,6.029,-0.014,-0.011,0.005,104.0,103.0,102.0,13.4,1505.2,325.6,-0.8,1.8,2470.557,13.29,0.017,231.8
2021-04-21T01:52:03,42.805,6.029,-0.014,0.001,-0.013,103.0,105.0,102.0,13.3,1505.2,323.3,-0.8,1.8,2470.58,13.29,0.014,274.1
2021-04-21T01:55:03,42.805,6.029,-0.029,0.003,0.0,103.0,105.0,103.0,13.4,1505.2,327.1,-0.8,1.8,2470.553,13.29,0.029,275.9
2021-04-21T01:58:03,42.805,6.029,-0.009,-0.015,-0.011,103.0,103.0,102.0,13.4,1505.2,325.9,-0.7,1.9,2470.508,13.29,0.017,211.0
2021-04-21T02:04:03,42.805,6.029,-0.014,0.002,-0.032,104.0,103.0,101.0,13.4,1505.2,326.0,-0.8,1.8,2470.571,13.28,0.014,278.1
2021-04-21T02:07:03,42.805,6.029,-0.026,0.0,-0.006,105.0,104.0,101.0,13.3,1505.2,327.9,-0.8,1.8,2470.564,13.28,0.026,270.0
2021-04-21T02:10:03,42.805,6.029,-0.012,-0.011,-0.021,103.0,104.0,101.0,13.4,1505.2,325.9,-0.7,1.8,2470.54,13.28,0.016,227.5
2021-04-21T02:13:03,42.805,6.029,-0.008,-0.011,0.023,103.0,101.0,102.0,13.4,1505.2,325.0,-0.8,1.8,2470.547,13.29,0.013,216.0
2021-04-21T02:16:03,42.805,6.029,-0.035,-0.001,-0.011,104.0,102.0,102.0,13.4,1505.2,325.5,-0.7,1.8,2470.599,13.29,0.035,268.4
2021-04-21T02:19:03,42.805,6.029,-0.006,0.007,-0.009,104.0,104.0,101.0,13.4,1505.2,327.2,-0.8,1.8,2470.559,13.29,0.009,319.4
2021-04-21T02:22:03,42.805,6.029,-0.013,-0.003,0.004,104.0,105.0,102.0,13.4,1505.2,326.0,-0.7,1.8,2470.539,13.29,0.013,257.0
2021-04-21T02:25:03,42.805,6.029,-0.023,-0.025,-0.007,103.0,104.0,102.0,13.4,1505.2,327.0,-0.8,1.8,2470.552,13.29,0.033,222.6
2021-04-21T02:28:03,42.805,6.029,0.001,-0.026,0.004,104.0,103.0,101.0,13.3,1505.2,327.5,-0.7,1.8,2470.551,13.29,0.026,177.8
2021-04-21T02:31:03,42.805,6.029,-0.002,-0.002,-0.015,103.0,103.0,102.0,13.4,1505.2,324.9,-0.8,1.8,2470.554,13.29,0.002,225.0
2021-04-21T02:34:03,42.805,6.029,-0.008,-0.033,-0.01,104.0,104.0,101.0,13.4,1505.2,325.0,-0.8,1.8,2470.559,13.29,0.033,193.6
2021-04-21T02:37:03,42.805,6.029,-0.027,-0.018,0.005,105.0,102.0,103.0,13.4,1505.2,326.3,-0.7,1.8,2470.555,13.29,0.032,236.3
2021-04-21T02:40:03,42.805,6.029,-0.013,-0.004,-0.026,102.0,103.0,102.0,13.4,1505.2,324.4,-0.7,1.8,2470.554,13.29,0.013,252.9
2021-04-21T02:43:03,42.805,6.029,-0.023,-0.015,0.005,104.0,102.0,102.0,13.4,1505.2,328.2,-0.8,1.8,2470.532,13.29,0.027,236.9
2021-04-21T02:46:03,42.805,6.029,-0.027,0.017,-0.041,101.0,102.0,102.0,13.3,1505.2,326.7,-0.8,1.8,2470.53,13.29,0.031,302.2
2021-04-21T02:49:03,42.805,6.029,-0.015,-0.005,0.0,104.0,102.0,101.0,13.3,1505.2,324.2,-0.7,1.8,2470.529,13.29,0.015,251.6
2021-04-21T02:52:03,42.805,6.029,0.001,0.001,0.01,103.0,102.0,102.0,13.3,1505.2,325.6,-0.8,1.8,2470.512,13.29,0.001,45.0
2021-04-21T02:55:03,42.805,6.029,-0.042,0.008,0.012,103.0,102.0,102.0,13.4,1505.2,327.4,-0.7,1.8,2470.534,13.29,0.042,280.8
2021-04-21T02:58:03,42.805,6.029,-0.038,0.006,-0.022,102.0,103.0,104.0,13.3,1505.2,326.4,-0.7,1.9,2470.546,13.29,0.038,279.0
2021-04-21T03:04:03,42.805,6.029,-0.03,-0.022,-0.041,104.0,100.0,102.0,13.4,1505.2,325.0,-0.7,1.8,2470.555,13.28,0.037,233.7
2021-04-21T03:07:03,42.805,6.029,-0.007,-0.005,-0.016,103.0,101.0,103.0,13.4,1505.2,324.7,-0.8,1.8,2470.576,13.28,0.008,234.5
2021-04-21T03:10:03,42.805,6.029,-0.018,-0.001,-0.029,104.0,101.0,102.0,13.4,1505.2,326.7,-0.7,1.8,2470.561,13.28,0.018,266.8
2021-04-21T03:13:03,42.805,6.029,0.0,-0.013,0.017,104.0,103.0,102.0,13.4,1505.2,328.1,-0.8,1.9,2470.529,13.28,0.013,180.0
2021-04-21T03:16:03,42.805,6.029,-0.041,-0.01,-0.014,102.0,103.0,102.0,13.4,1505.2,325.9,-0.7,1.8,2470.542,13.28,0.042,256.3
2021-04-21T03:19:03,42.805,6.029,-0.032,-0.004,0.001,102.0,104.0,102.0,13.4,1505.2,327.2,-0.8,1.8,2470.608,13.29,0.032,262.9
2021-04-21T03:22:03,42.805,6.029,-0.022,0.0,-0.013,104.0,103.0,100.0,13.3,1505.2,324.7,-0.8,1.9,2470.547,13.29,0.022,270.0
2021-04-21T03:25:03,42.805,6.029,-0.015,-0.012,-0.001,104.0,102.0,103.0,13.3,1505.2,327.9,-0.7,1.8,2470.554,13.29,0.019,231.3
2021-04-21T03:28:03,42.805,6.029,-0.036,-0.016,-0.026,103.0,103.0,102.0,13.4,1505.2,327.4,-0.7,1.9,2470.537,13.29,0.039,246.0
2021-04-21T03:31:03,42.805,6.029,-0.023,-0.001,0.013,104.0,103.0,101.0,13.4,1505.2,327.3,-0.7,1.8,2470.545,13.29,0.023,267.5
2021-04-21T03:34:03,42.805,6.029,-0.031,-0.009,0.021,104.0,102.0,102.0,13.3,1505.2,324.5,-0.8,1.8,2470.568,13.29,0.032,253.8
2021-04-21T03:37:03,42.805,6.029,-0.009,0.001,-0.028,103.0,103.0,102.0,13.3,1505.2,327.2,-0.7,1.8,2470.57,13.28,0.009,276.3
2021-04-21T03:40:03,42.805,6.029,-0.005,-0.005,0.002,106.0,103.0,104.0,13.4,1505.2,326.1,-0.7,1.8,2470.539,13.29,0.007,225.0
2021-04-21T03:43:03,42.805,6.029,-0.005,0.0,-0.037,106.0,103.0,103.0,13.4,1505.2,323.8,-0.8,1.8,2470.557,13.29,0.005,270.0
2021-04-21T03:46:03,42.805,6.029,-0.013,-0.017,0.011,105.0,104.0,102.0,13.4,1505.2,328.7,-0.8,1.8,2470.554,13.29,0.021,217.4
2021-04-21T03:49:03,42.805,6.029,-0.034,0.005,0.001,103.0,103.0,102.0,13.4,1505.2,324.9,-0.7,1.8,2470.527,13.29,0.034,278.4
2021-04-21T03:52:03,42.805,6.029,-0.021,-0.01,-0.026,103.0,105.0,102.0,13.3,1505.2,324.7,-0.7,1.8,2470.554,13.29,0.023,244.5
2021-04-21T03:55:03,42.805,6.029,-0.03,-0.025,-0.011,105.0,102.0,103.0,13.3,1505.2,327.3,-0.8,1.8,2470.583,13.29,0.039,230.2
2021-04-21T03:58:03,42.805,6.029,-0.005,-0.018,-0.027,103.0,105.0,101.0,13.3,1505.2,327.3,-0.7,1.8,2470.574,13.29,0.018,195.5
2021-04-21T04:04:03,42.805,6.029,-0.038,-0.005,-0.026,104.0,103.0,101.0,13.3,1505.2,326.7,-0.7,1.8,2470.573,13.28,0.038,262.5
2021-04-21T04:07:03,42.805,6.029,-0.035,-0.012,0.014,104.0,102.0,101.0,13.3,1505.2,326.8,-0.8,1.8,2470.526,13.28,0.037,251.1
2021-04-21T04:10:03,42.805,6.029,-0.024,-0.002,0.028,103.0,102.0,102.0,13.3,1505.2,325.4,-0.7,1.8,2470.572,13.28,0.024,265.2
2021-04-21T04:13:03,42.805,6.029,-0.041,0.001,-0.022,103.0,102.0,101.0,13.4,1505.2,327.7,-0.7,1.8,2470.574,13.28,0.041,271.4
2021-04-21T04:16:03,42.805,6.029,0.01,-0.014,0.034,102.0,103.0,101.0,13.3,1505.2,328.0,-0.8,1.8,2470.569,13.28,0.017,144.5
2021-04-21T04:19:03,42.805,6.029,-0.001,-0.004,0.017,104.0,104.0,101.0,13.4,1505.2,329.0,-0.8,1.8,2470.511,13.28,0.004,194.0
2021-04-21T04:22:03,42.805,6.029,-0.025,-0.006,-0.03,104.0,102.0,101.0,13.3,1505.2,327.9,-0.8,1.8,2470.567,13.28,0.025,256.5
2021-04-21T04:25:03,42.805,6.029,-0.022,-0.016,-0.026,104.0,103.0,102.0,13.4,1505.2,329.2,-0.7,1.8,2470.538,13.28,0.027,234.0
2021-04-21T04:28:03,42.805,6.029,-0.009,-0.018,-0.004,105.0,104.0,102.0,13.4,1505.2,325.9,-0.7,1.8,2470.477,13.29,0.02,206.6
2021-04-21T04:31:03,42.805,6.029,-0.03,-0.016,0.005,104.0,104.0,103.0,13.4,1505.2,324.1,-0.8,1.8,2470.545,13.29,0.034,241.9
2021-04-21T04:34:03,42.805,6.029,-0.021,-0.016,-0.002,104.0,106.0,104.0,13.4,1505.2,325.0,-0.7,1.8,2470.508,13.29,0.026,232.7
2021-04-21T04:37:03,42.805,6.029,-0.032,-0.002,0.021,103.0,104.0,103.0,13.4,1505.2,325.0,-0.8,1.8,2470.501,13.28,0.032,266.4
2021-04-21T04:40:03,42.805,6.029,-0.024,0.001,0.006,104.0,104.0,103.0,13.4,1505.2,326.3,-0.8,1.8,2470.519,13.28,0.024,272.4
2021-04-21T04:43:03,42.805,6.029,-0.03,0.001,0.012,104.0,103.0,103.0,13.4,1505.2,325.5,-0.8,1.8,2470.534,13.28,0.03,271.9
2021-04-21T04:46:03,42.805,6.029,-0.01,-0.005,0.016,103.0,103.0,103.0,13.4,1505.2,328.7,-0.8,1.8,2470.53,13.28,0.011,243.4
2021-04-21T04:49:03,42.805,6.029,-0.024,-0.011,-0.024,104.0,103.0,101.0,13.4,1505.2,327.7,-0.8,1.8,2470.505,13.28,0.026,245.4
2021-04-21T04:52:03,42.805,6.029,-0.031,-0.017,-0.013,104.0,104.0,101.0,13.4,1505.2,327.8,-0.8,1.9,2470.535,13.28,0.035,241.3
2021-04-21T04:55:03,42.805,6.029,-0.035,-0.022,0.012,104.0,103.0,101.0,13.3,1505.2,329.0,-0.8,1.8,2470.493,13.28,0.041,237.8
2021-04-21T04:58:03,42.805,6.029,-0.016,-0.026,-0.017,104.0,103.0,101.0,13.3,1505.2,328.8,-0.7,1.8,2470.565,13.28,0.03,211.6
2021-04-21T05:04:03,42.805,6.029,-0.002,-0.012,0.032,103.0,103.0,102.0,13.4,1505.2,328.3,-0.8,1.8,2470.556,13.28,0.012,189.5
2021-04-21T05:07:03,42.805,6.029,-0.013,-0.002,-0.009,104.0,104.0,104.0,13.4,1505.2,327.8,-0.7,1.8,2470.564,13.28,0.013,261.3
2021-04-21T05:10:03,42.805,6.029,-0.011,-0.027,0.008,103.0,103.0,101.0,13.4,1505.2,326.5,-0.8,1.8,2470.499,13.28,0.029,202.2
2021-04-21T05:13:03,42.805,6.029,-0.02,-0.02,-0.008,103.0,104.0,103.0,13.4,1505.2,328.5,-0.7,1.8,2470.534,13.28,0.028,225.0
2021-04-21T05:16:03,42.805,6.029,-0.021,-0.009,-0.022,103.0,105.0,101.0,13.4,1505.2,328.5,-0.8,1.8,2470.481,13.28,0.022,246.8
2021-04-21T05:19:03,42.805,6.029,-0.03,-0.009,0.016,104.0,103.0,101.0,13.3,1505.2,327.5,-0.7,1.8,2470.521,13.28,0.031,253.3
2021-04-21T05:22:03,42.805,6.029,-0.013,-0.013,-0.006,104.0,102.0,101.0,13.3,1505.2,324.9,-0.8,1.8,2470.503,13.28,0.018,225.0
2021-04-21T05:25:03,42.805,6.029,-0.038,-0.009,-0.024,104.0,104.0,102.0,13.3,1505.2,324.0,-0.8,1.8,2470.513,13.28,0.039,256.7
2021-04-21T05:28:03,42.805,6.029,-0.01,-0.009,-0.02,103.0,102.0,103.0,13.3,1505.2,328.6,-0.7,1.8,2470.503,13.28,0.013,228.0
2021-04-21T05:31:03,42.805,6.029,-0.015,-0.016,0.01,103.0,103.0,102.0,13.4,1505.2,328.6,-0.8,1.8,2470.533,13.28,0.021,223.1
2021-04-21T05:34:03,42.805,6.029,-0.042,0.011,0.02,104.0,104.0,101.0,13.4,1505.2,328.8,-0.8,1.8,2470.549,13.28,0.043,284.7
2021-04-21T05:37:03,42.805,6.029,-0.023,-0.004,0.028,103.0,103.0,103.0,13.4,1505.2,328.7,-0.8,1.8,2470.509,13.28,0.023,260.1
2021-04-21T05:40:03,42.805,6.029,-0.021,0.007,-0.018,103.0,103.0,101.0,13.4,1505.2,327.6,-0.7,1.8,2470.5,13.28,0.022,288.4
2021-04-21T05:43:03,42.805,6.029,-0.029,0.001,0.024,104.0,102.0,101.0,13.3,1505.2,324.6,-0.8,1.8,2470.509,13.28,0.029,272.0
2021-04-21T05:46:03,42.805,6.029,-0.027,-0.008,-0.004,103.0,102.0,102.0,13.3,1505.2,324.8,-0.8,1.8,2470.507,13.28,0.028,253.5
2021-04-21T05:49:03,42.805,6.029,-0.035,0.014,0.004,102.0,102.0,102.0,13.4,1505.2,327.3,-0.7,1.8,2470.491,13.28,0.037,291.8
2021-04-21T05:52:03,42.805,6.029,-0.023,0.012,-0.006,103.0,104.0,102.0,13.4,1505.2,325.0,-0.7,1.8,2470.509,13.28,0.025,297.6
2021-04-21T05:55:03,42.805,6.029,-0.054,0.004,-0.02,102.0,103.0,101.0,13.4,1505.2,324.6,-0.7,1.8,2470.537,13.28,0.054,274.2
2021-04-21T05:58:03,42.805,6.029,-0.034,-0.007,-0.008,104.0,104.0,102.0,13.4,1505.2,327.2,-0.7,1.9,2470.499,13.28,0.034,258.4
2021-04-21T06:04:03,42.805,6.029,-0.052,-0.004,-0.008,104.0,102.0,101.0,13.4,1505.2,325.7,-0.8,1.9,2470.52,13.28,0.052,265.6
2021-04-21T06:07:03,42.805,6.029,-0.048,-0.007,0.0,103.0,102.0,102.0,13.4,1505.2,323.6,-0.7,1.8,2470.479,13.28,0.048,261.7
2021-04-21T06:10:03,42.805,6.029,-0.019,0.0,0.014,104.0,106.0,101.0,13.4,1505.2,328.4,-0.8,1.8,2470.522,13.28,0.019,270.0
2021-04-21T06:13:03,42.805,6.029,-0.038,-0.009,0.006,103.0,102.0,101.0,13.4,1505.2,325.3,-0.7,1.8,2470.522,13.28,0.039,256.7
2021-04-21T06:16:03,42.805,6.029,-0.025,-0.018,-0.006,103.0,102.0,102.0,13.4,1505.2,324.0,-0.7,1.8,2470.5,13.28,0.03,234.2
2021-04-21T06:19:03,42.805,6.029,-0.03,0.001,0.022,102.0,104.0,102.0,13.4,1505.2,328.2,-0.7,1.8,2470.469,13.28,0.03,271.9
2021-04-21T06:22:03,42.805,6.029,-0.015,-0.004,0.027,103.0,103.0,101.0,13.4,1505.2,328.8,-0.7,1.8,2470.482,13.28,0.015,255.1
2021-04-21T06:25:03,42.805,6.029,-0.029,0.0,0.003,102.0,103.0,102.0,13.4,1505.2,324.3,-0.7,1.8,2470.479,13.28,0.028,270.0
2021-04-21T06:28:03,42.805,6.029,-0.024,-0.006,-0.009,102.0,102.0,103.0,13.4,1505.2,323.4,-0.7,1.8,2470.505,13.28,0.024,256.0
2021-04-21T06:31:03,42.805,6.029,-0.024,-0.006,-0.003,103.0,103.0,102.0,13.3,1505.2,326.9,-0.8,1.9,2470.507,13.28,0.024,256.0
2021-04-21T06:34:03,42.805,6.029,-0.011,-0.008,0.002,103.0,104.0,101.0,13.4,1505.2,327.4,-0.7,1.8,2470.525,13.28,0.013,234.0
2021-04-21T06:37:03,42.805,6.029,-0.005,-0.012,-0.006,102.0,104.0,103.0,13.3,1505.2,326.4,-0.8,1.8,2470.503,13.28,0.013,202.6
2021-04-21T06:40:03,42.805,6.029,-0.042,0.009,0.019,103.0,103.0,101.0,13.4,1505.2,326.5,-0.8,1.8,2470.519,13.28,0.042,282.1
2021-04-21T06:43:03,42.805,6.029,-0.022,-0.013,-0.002,103.0,103.0,101.0,13.4,1505.2,327.0,-0.7,1.8,2470.518,13.28,0.025,239.4
2021-04-21T06:46:03,42.805,6.029,-0.016,0.012,-0.006,103.0,102.0,102.0,13.4,1505.2,324.9,-0.7,1.8,2470.498,13.28,0.02,306.9
2021-04-21T06:49:03,42.805,6.029,-0.019,0.017,-0.011,104.0,104.0,102.0,13.4,1505.2,325.2,-0.8,1.8,2470.522,13.28,0.025,311.8
2021-04-21T06:52:03,42.805,6.029,-0.016,-0.011,-0.002,104.0,104.0,102.0,13.4,1505.2,327.0,-0.7,1.8,2470.445,13.28,0.019,235.5
2021-04-21T06:55:03,42.805,6.029,-0.032,-0.001,0.0,104.0,103.0,102.0,13.4,1505.2,323.6,-0.7,1.8,2470.477,13.28,0.032,268.2
2021-04-21T06:58:03,42.805,6.029,-0.009,0.003,0.005,102.0,105.0,103.0,13.4,1505.2,328.3,-0.8,1.8,2470.467,13.28,0.009,288.4
2021-04-21T07:04:03,42.805,6.029,-0.01,-0.006,0.016,103.0,102.0,101.0,13.3,1505.2,326.8,-0.7,1.8,2470.516,13.28,0.011,239.0
2021-04-21T07:07:03,42.805,6.029,-0.026,0.0,0.0,104.0,103.0,101.0,13.4,1505.2,326.0,-0.8,1.9,2470.509,13.28,0.026,270.0
2021-04-21T07:10:03,42.805,6.029,-0.03,-0.008,0.024,103.0,103.0,102.0,13.4,1505.2,323.5,-0.7,1.8,2470.462,13.28,0.031,255.1
2021-04-21T07:13:03,42.805,6.029,-0.028,-0.005,0.01,102.0,102.0,102.0,13.4,1505.2,327.3,-0.8,1.8,2470.481,13.28,0.028,259.9
2021-04-21T07:16:03,42.805,6.029,-0.027,-0.005,0.019,103.0,103.0,102.0,13.3,1505.2,324.1,-0.7,1.8,2470.482,13.28,0.027,259.5
2021-04-21T07:19:03,42.805,6.029,-0.019,-0.01,0.007,103.0,103.0,101.0,13.4,1505.2,323.4,-0.8,1.8,2470.47,13.28,0.021,242.2
2021-04-21T07:22:03,42.805,6.029,-0.03,0.0,0.008,106.0,102.0,102.0,13.3,1505.2,328.5,-0.7,1.8,2470.471,13.28,0.03,270.0
2021-04-21T07:25:03,42.805,6.029,-0.007,-0.001,-0.01,103.0,104.0,102.0,13.4,1505.2,327.2,-0.7,1.8,2470.465,13.28,0.007,261.9
2021-04-21T07:28:03,42.805,6.029,-0.018,-0.011,0.0,103.0,103.0,102.0,13.4,1505.2,327.1,-0.7,1.8,2470.472,13.29,0.021,238.6
2021-04-21T07:31:03,42.805,6.029,-0.025,-0.008,0.033,108.0,103.0,103.0,13.4,1505.2,327.6,-0.7,1.8,2470.51,13.28,0.026,252.3
2021-04-21T07:34:03,42.805,6.029,-0.028,0.008,0.014,104.0,104.0,103.0,13.3,1505.2,324.9,-0.8,1.8,2470.458,13.29,0.029,285.9
2021-04-21T07:37:03,42.805,6.029,-0.009,-0.005,0.0,103.0,103.0,103.0,13.4,1505.2,326.0,-0.7,1.8,2470.46,13.29,0.01,240.9
2021-04-21T07:40:03,42.805,6.029,-0.029,-0.011,-0.018,104.0,104.0,102.0,13.4,1505.2,324.6,-0.7,1.8,2470.472,13.29,0.031,249.2
2021-04-21T07:43:03,42.805,6.029,-0.033,0.018,-0.013,102.0,103.0,103.0,13.3,1505.2,323.6,-0.8,1.8,2470.54,13.29,0.037,298.6
2021-04-21T07:46:03,42.805,6.029,-0.03,-0.009,-0.007,103.0,104.0,101.0,13.4,1505.2,324.1,-0.8,1.8,2470.443,13.29,0.031,253.3
2021-04-21T07:49:03,42.805,6.029,-0.04,0.007,-0.016,103.0,104.0,103.0,13.3,1505.2,323.5,-0.8,1.8,2470.431,13.28,0.04,279.9
2021-04-21T07:52:03,42.805,6.029,-0.009,0.011,0.007,104.0,105.0,101.0,13.3,1505.2,323.6,-0.8,1.8,2470.469,13.28,0.014,320.7
2021-04-21T07:55:03,42.805,6.029,-0.025,-0.004,0.006,103.0,104.0,102.0,13.4,1505.2,328.8,-0.7,1.8,2470.446,13.29,0.025,260.9
2021-04-21T07:58:03,42.805,6.029,-0.013,-0.022,0.018,104.0,103.0,103.0,13.4,1505.2,325.2,-0.8,1.8,2470.457,13.29,0.025,210.6
2021-04-21T08:04:03,42.805,6.029,-0.017,-0.009,-0.025,103.0,103.0,102.0,13.4,1505.2,327.5,-0.8,1.8,2470.478,13.28,0.019,242.1
2021-04-21T08:07:03,42.805,6.029,-0.013,-0.008,0.023,102.0,103.0,102.0,13.3,1505.2,327.3,-0.8,1.8,2470.476,13.28,0.015,238.4
2021-04-21T08:10:03,42.805,6.029,-0.028,0.015,0.015,103.0,104.0,102.0,13.4,1505.2,324.1,-0.8,1.8,2470.503,13.28,0.031,298.2
2021-04-21T08:13:03,42.805,6.029,-0.015,-0.017,0.004,105.0,103.0,102.0,13.4,1505.2,329.0,-0.7,1.8,2470.452,13.29,0.022,221.4
2021-04-21T08:16:03,42.805,6.029,-0.022,-0.018,-0.011,104.0,103.0,102.0,13.4,1505.2,326.6,-0.7,1.8,2470.465,13.29,0.028,230.7
2021-04-21T08:19:03,42.805,6.029,-0.044,0.004,0.014,103.0,103.0,100.0,13.3,1505.2,325.0,-0.8,1.8,2470.467,13.29,0.044,275.2
2021-04-21T08:22:03,42.805,6.029,-0.03,0.013,0.014,102.0,103.0,101.0,13.4,1505.2,325.3,-0.8,1.8,2470.431,13.29,0.032,293.4
2021-04-21T08:25:03,42.805,6.029,-0.029,0.008,-0.005,104.0,103.0,102.0,13.3,1505.2,327.6,-0.7,1.8,2470.446,13.29,0.03,285.4
2021-04-21T08:28:03,42.805,6.029,-0.016,0.002,-0.001,102.0,103.0,101.0,13.3,1505.2,328.7,-0.8,1.8,2470.428,13.29,0.016,277.1
2021-04-21T08:31:03,42.805,6.029,-0.028,0.007,0.018,105.0,103.0,102.0,13.3,1505.2,324.8,-0.8,1.8,2470.428,13.29,0.028,284.0
2021-04-21T08:34:03,42.805,6.029,-0.023,-0.003,-0.017,105.0,104.0,102.0,13.3,1505.2,326.7,-0.8,1.8,2470.441,13.29,0.023,262.6
2021-04-21T08:37:03,42.805,6.029,-0.022,0.018,0.016,102.0,104.0,103.0,13.3,1505.2,327.9,-0.7,1.8,2470.482,13.29,0.028,309.3
2021-04-21T08:40:03,42.805,6.029,-0.009,-0.012,0.002,103.0,104.0,103.0,13.4,1505.2,324.8,-0.8,1.8,2470.454,13.29,0.015,216.9
2021-04-21T08:43:03,42.805,6.029,0.001,-0.002,0.012,104.0,104.0,102.0,13.4,1505.2,327.0,-0.7,1.8,2470.439,13.29,0.002,153.4
2021-04-21T08:46:03,42.805,6.029,-0.008,0.002,0.015,104.0,104.0,102.0,13.4,1505.2,327.5,-0.8,1.8,2470.474,13.29,0.008,284.0
2021-04-21T08:49:03,42.805,6.029,-0.034,-0.009,0.002,106.0,103.0,101.0,13.4,1505.2,325.6,-0.8,1.8,2470.462,13.29,0.035,255.2
2021-04-21T08:52:03,42.805,6.029,-0.025,0.001,0.024,104.0,104.0,102.0,13.4,1505.2,328.0,-0.7,1.8,2470.405,13.29,0.025,272.3
2021-04-21T08:55:03,42.805,6.029,-0.018,-0.015,-0.018,104.0,105.0,103.0,13.4,1505.2,325.9,-0.8,1.8,2470.446,13.29,0.023,230.2
2021-04-21T08:58:03,42.805,6.029,-0.013,0.0,0.031,103.0,104.0,103.0,13.4,1505.2,326.5,-0.7,1.8,2470.435,13.29,0.013,270.0
2021-04-21T09:04:03,42.805,6.029,-0.012,-0.001,0.001,107.0,103.0,102.0,13.4,1505.2,326.0,-0.7,1.8,2470.459,13.28,0.012,265.2
2021-04-21T09:07:03,42.805,6.029,-0.022,0.0,-0.002,103.0,103.0,102.0,13.4,1505.2,324.1,-0.7,1.8,2470.486,13.28,0.022,270.0
2021-04-21T09:10:03,42.805,6.029,-0.012,0.015,0.005,104.0,104.0,103.0,13.4,1505.2,325.6,-0.8,1.8,2470.466,13.28,0.019,321.3
2021-04-21T09:13:03,42.805,6.029,-0.023,0.001,0.015,105.0,103.0,102.0,13.4,1505.2,327.7,-0.8,1.8,2470.443,13.28,0.023,272.5
2021-04-21T09:16:03,42.805,6.029,-0.005,0.018,0.012,103.0,103.0,101.0,13.3,1505.2,325.7,-0.7,1.8,2470.447,13.29,0.018,344.5
2021-04-21T09:19:03,42.805,6.029,-0.031,-0.009,-0.013,105.0,103.0,102.0,13.4,1505.2,326.8,-0.7,1.8,2470.449,13.29,0.032,253.8
2021-04-21T09:22:03,42.805,6.029,-0.016,-0.006,0.016,104.0,104.0,102.0,13.4,1505.2,327.2,-0.8,1.8,2470.467,13.29,0.017,249.4
2021-04-21T09:25:03,42.805,6.029,-0.018,-0.011,0.007,103.0,103.0,102.0,13.4,1505.2,323.8,-0.7,1.8,2470.409,13.29,0.021,238.6
2021-04-21T09:28:03,42.805,6.029,-0.022,0.009,-0.003,103.0,103.0,102.0,13.4,1505.2,327.1,-0.7,1.8,2470.421,13.29,0.023,292.2
2021-04-21T09:31:03,42.805,6.029,-0.003,-0.007,-0.005,103.0,104.0,101.0,13.4,1505.2,325.4,-0.7,1.8,2470.451,13.29,0.007,203.2
2021-04-21T09:34:03,42.805,6.029,-0.029,-0.009,0.012,104.0,104.0,101.0,13.3,1505.2,324.0,-0.8,1.8,2470.428,13.29,0.03,252.8
2021-04-21T09:37:03,42.805,6.029,-0.012,-0.012,-0.002,105.0,103.0,102.0,13.3,1505.2,327.6,-0.7,1.8,2470.407,13.29,0.016,225.0
2021-04-21T09:40:03,42.805,6.029,-0.034,-0.002,-0.01,103.0,105.0,101.0,13.4,1505.2,324.4,-0.8,1.8,2470.413,13.29,0.034,266.6
2021-04-21T09:43:03,42.805,6.029,-0.001,0.018,0.049,103.0,103.0,102.0,13.4,1505.2,324.2,-0.8,1.8,2470.405,13.29,0.018,356.8
2021-04-21T09:46:03,42.805,6.029,-0.008,0.005,0.006,103.0,104.0,100.0,13.4,1505.2,323.9,-0.7,1.8,2470.456,13.29,0.009,302.0
2021-04-21T09:49:03,42.805,6.029,-0.042,0.01,0.015,103.0,102.0,101.0,13.4,1505.2,327.8,-0.8,1.9,2470.462,13.29,0.043,283.4
2021-04-21T09:52:03,42.805,6.029,-0.015,0.006,0.026,102.0,102.0,101.0,13.4,1505.2,327.7,-0.7,1.8,2470.435,13.29,0.016,291.8
2021-04-21T09:55:03,42.805,6.029,-0.003,-0.001,0.004,103.0,103.0,102.0,13.4,1505.2,325.6,-0.7,1.8,2470.441,13.29,0.003,251.6